DateTimeUTC,F1_A11,F1_S11,BsB_S11,BsG_S11,BsR_S11,BbsB_S11,BbsG_S11,BbsR_S11,BaB_A11,BaG_A11,BaR_A11,Tu_S11,T_S11,Uu_S11,U_S11,P_S11,T1_A11
2021-09-05T14:00:00Z,00000200,20000000,,,,,,,0000.17,0000.03,0000.21,18.7,25.4,02.5,01.7,0663.1,31.0
2021-09-05T14:01:00Z,00000200,20000000,,,,,,,-000.09,0000.02,-000.10,18.7,25.4,02.6,01.7,0663.1,31.0
2021-09-05T14:02:00Z,00000200,20000000,,,,,,,0000.19,0000.26,0000.00,18.7,25.4,02.6,01.7,0663.1,31.0
2021-09-05T14:03:00Z,00000200,60000000,,,,,,,0000.50,0000.69,0000.27,18.7,25.4,02.6,01.7,0663.1,31.0
2021-09-05T14:04:00Z,00000200,40000000,0002.43,0002.20,0001.27,0000.89,0000.32,0000.34,0000.52,0000.34,0000.31,18.8,25.2,02.8,01.9,0664.0,31.0
2021-09-05T14:05:00Z,00000200,00000000,0002.67,0001.97,0001.18,0000.43,0000.48,0000.27,0000.82,0000.28,0000.95,18.9,25.2,02.7,01.9,0664.1,31.0
2021-09-05T14:06:00Z,00000200,00000000,0003.00,0002.22,0001.19,0000.43,0000.26,0000.30,0000.45,0000.80,0000.08,18.9,25.1,02.8,01.9,0664.1,31.0
2021-09-05T14:07:00Z,00000200,00010000,0002.41,0002.26,0001.62,0000.79,0000.30,0000.56,0000.48,0000.42,0000.48,18.9,25.1,02.7,01.9,0664.1,31.0
2021-09-05T14:08:00Z,00000200,00000000,0002.66,0002.30,0001.21,0000.59,0000.39,0000.14,0000.57,0000.61,0000.34,18.9,25.1,02.8,01.9,0664.0,31.0
2021-09-05T14:09:00Z,00000200,00000000,0002.45,0001.80,0001.07,0000.29,0000.26,0000.32,0000.49,0000.40,0000.55,18.9,25.1,02.8,01.9,0664.0,31.0
2021-09-05T14:10:00Z,00000200,00000000,0002.57,0002.38,0001.15,0001.06,0000.41,0000.27,0000.45,0000.63,0000.38,18.9,25.1,02.8,01.9,0664.0,31.0
2021-09-05T14:11:00Z,00000200,00000000,0002.93,0001.86,0001.29,0000.50,0000.35,0000.18,0000.29,0000.43,0000.19,18.9,25.1,02.7,01.9,0664.0,31.0
2021-09-05T14:12:00Z,00000200,00000000,0002.27,0001.89,0001.42,0001.07,0000.25,0000.16,0000.73,0000.35,0000.32,18.9,25.1,02.8,01.9,0664.0,31.0
2021-09-05T14:13:00Z,00000200,00000000,0002.59,0002.27,0001.48,0000.86,0000.02,0000.08,0000.54,0000.67,0000.56,18.9,25.1,02.7,01.8,0664.0,31.0
2021-09-05T14:14:00Z,00000200,00000000,0003.46,0001.98,0001.03,0000.80,0000.11,0000.30,0000.84,0000.40,0000.50,18.9,25.1,02.8,01.9,0664.0,31.0
2021-09-05T14:15:00Z,00000200,00000000,0001.71,0001.90,0001.26,0000.82,0000.56,0000.44,0000.49,0000.49,0000.24,18.9,25.1,02.7,01.8,0664.0,31.0
2021-09-05T14:16:00Z,00000200,00000000,0003.43,0002.12,0001.47,0000.78,0000.31,0000.28,0000.38,0000.42,0000.13,18.9,25.1,02.7,01.9,0664.0,31.0
2021-09-05T14:17:00Z,00000200,00000000,0002.83,0002.52,0001.26,0000.76,0000.35,0000.34,0000.40,0000.35,0000.63,18.9,25.1,02.7,01.9,0664.0,31.0
2021-09-05T14:18:00Z,00000200,00000000,0003.54,0002.00,0001.02,0000.09,0000.38,0000.11,0000.78,0000.77,0000.36,18.9,25.1,02.6,01.8,0664.0,31.0
2021-09-05T14:19:00Z,00000200,00000000,0002.27,0002.41,0001.15,0000.74,0000.66,-000.08,0000.50,0000.46,0000.64,18.9,25.1,02.7,01.9,0664.0,31.0
2021-09-05T14:20:00Z,00000200,00000000,0002.39,0002.11,0001.61,0000.43,0000.08,0000.33,0000.77,0000.70,0000.24,18.9,25.1,02.6,01.8,0664.0,31.0
2021-09-05T14:21:00Z,00000200,00000000,0002.48,0002.27,0001.32,0000.56,0000.09,0000.13,0000.41,0000.39,0000.44,18.9,25.1,02.6,01.8,0664.0,31.0
2021-09-05T14:22:00Z,00000200,00000000,0002.96,0002.30,0001.33,0001.18,0000.42,0000.34,0000.59,0000.70,0000.53,18.9,25.1,02.7,01.9,0664.0,31.0
2021-09-05T14:23:00Z,00000200,00000000,0003.48,0002.48,0001.28,0000.82,0000.54,0000.15,0000.72,0000.30,0000.71,18.9,25.0,02.7,01.9,0664.0,31.0
2021-09-05T14:24:00Z,00000200,00000000,0002.99,0002.37,0001.16,0000.75,-000.01,-000.00,0000.20,0000.50,0000.06,18.9,25.1,02.6,01.8,0664.0,31.0
2021-09-05T14:25:00Z,00000200,00000000,0003.33,0002.19,0001.07,0000.61,0000.08,0000.21,0000.48,0000.36,0000.22,18.9,25.1,02.7,01.8,0664.0,31.0
2021-09-05T14:26:00Z,00000200,00000000,0002.50,0002.23,0001.30,0000.54,0000.23,0000.05,0000.81,0000.63,0000.59,18.9,25.0,02.6,01.8,0664.0,31.0
2021-09-05T14:27:00Z,00000200,00000000,0002.83,0002.29,0001.40,0000.89,0000.38,0000.19,0000.77,0000.70,0000.45,18.9,25.0,02.5,01.7,0664.0,31.0
2021-09-05T14:28:00Z,00000200,00000000,0002.99,0002.43,0001.20,0000.59,0000.47,0000.24,0000.55,0000.86,0000.50,19.0,25.1,02.5,01.7,0664.0,31.1
2021-09-05T14:29:00Z,00000200,00000000,0002.26,0002.02,0001.03,0000.69,0000.62,0000.27,0000.62,0000.14,0000.42,19.1,25.1,02.4,01.7,0664.0,31.1
2021-09-05T14:30:00Z,00000200,00000000,0002.45,0001.93,0000.95,0000.79,0000.59,0000.34,0000.17,0000.40,0000.50,19.1,25.1,02.4,01.6,0664.0,31.0
2021-09-05T14:31:00Z,00000200,00000000,0002.76,0002.30,0001.26,0000.82,0000.65,0000.32,0000.58,0000.64,0000.10,19.1,25.1,02.4,01.6,0664.0,31.0
2021-09-05T14:32:00Z,00000200,00000000,0002.44,0002.30,0001.26,0000.21,0000.25,0000.01,0000.80,0000.36,0000.73,19.1,25.1,02.4,01.6,0664.0,31.0
2021-09-05T14:33:00Z,00000200,00000000,0003.33,0002.30,0001.05,0000.36,0000.47,0000.46,0000.40,0000.52,0000.19,19.1,25.1,02.4,01.6,0664.0,31.0
2021-09-05T14:34:00Z,00000200,00000000,0002.78,0002.38,0001.32,0000.89,0000.21,0000.09,0000.46,-000.03,0000.55,19.1,25.1,02.4,01.7,0664.1,31.0
2021-09-05T14:35:00Z,00000200,00000000,0002.61,0002.48,0001.20,0000.56,0000.34,0000.15,0000.33,0000.75,0000.00,19.1,25.1,02.4,01.7,0664.0,31.0
2021-09-05T14:36:00Z,00000200,00000000,0003.19,0002.18,0001.15,0001.07,0000.36,0000.06,0000.71,0000.63,0000.46,19.0,25.1,02.4,01.6,0664.0,31.0
2021-09-05T14:37:00Z,00000200,00000000,0002.53,0002.33,0001.51,0000.59,0000.27,0000.63,0000.67,0000.13,-000.00,19.0,25.1,02.4,01.6,0664.0,31.0
2021-09-05T14:38:00Z,00000200,00000000,0003.19,0002.13,0001.29,0000.56,0000.39,0000.23,0000.23,0000.53,0000.86,19.0,25.1,02.3,01.6,0664.0,31.0
2021-09-05T14:39:00Z,00000200,00000000,0002.70,0002.16,0001.30,0000.19,0000.32,0000.48,0000.61,0000.81,0000.18,19.0,25.1,02.3,01.6,0664.0,31.0
2021-09-05T14:40:00Z,00000200,00000000,0002.35,0002.09,0000.93,0000.64,0000.52,0000.01,0000.25,0000.35,0000.54,19.0,25.1,02.3,01.6,0664.0,31.0
2021-09-05T14:41:00Z,00000200,00000000,0002.76,0002.52,0001.35,0000.40,0000.32,0000.53,0000.84,0000.43,0000.49,19.0,25.1,02.2,01.5,0664.0,31.0
2021-09-05T14:42:00Z,00000200,00000000,0002.64,0002.24,0001.18,0000.19,0000.32,0000.20,0000.55,0000.81,0000.25,19.0,25.1,02.3,01.6,0664.0,31.0
2021-09-05T14:43:00Z,00000200,00000000,0002.67,0002.44,0001.15,0000.38,0000.19,0000.30,0000.55,0000.51,0000.61,19.0,25.1,02.3,01.6,0664.0,31.0
2021-09-05T14:44:00Z,00000200,00000000,0002.83,0002.02,0001.47,0000.98,0000.43,0000.40,0000.40,0000.22,0000.25,19.0,25.1,02.2,01.5,0664.0,31.0
2021-09-05T14:45:00Z,00000200,00000000,0002.52,0002.04,0000.97,0000.75,0000.43,0000.44,0000.76,0000.58,0000.42,19.0,25.1,02.2,01.5,0664.0,31.0
2021-09-05T14:46:00Z,00000200,01000000,0003.14,0002.35,0001.35,0000.63,0000.46,0000.20,0000.16,0000.23,0000.50,19.0,25.1,02.2,01.5,0664.0,31.0
2021-09-05T14:47:00Z,00000200,01000000,0002.67,0001.98,0001.11,0001.46,0000.12,0000.48,0000.88,0000.81,0000.52,19.0,25.1,02.2,01.5,0664.0,31.0
2021-09-05T14:48:00Z,00000200,00000000,0003.04,0002.13,0001.08,0000.71,0000.27,0000.29,0000.36,0000.84,0000.18,19.0,25.1,02.2,01.5,0664.0,31.0
2021-09-05T14:49:00Z,00000200,00000000,0002.93,0002.28,0001.07,0000.36,0000.25,0000.60,0000.73,0000.54,0000.54,19.0,25.1,02.2,01.5,0664.0,31.0
2021-09-05T14:50:00Z,00000200,00000000,0003.30,0002.04,0001.19,0000.78,0000.34,0000.05,0000.51,0000.55,0000.33,19.0,25.1,02.1,01.5,0664.0,31.0
2021-09-05T14:51:00Z,00000200,00000000,0002.76,0002.29,0001.67,0000.50,0000.24,0000.21,0000.81,0000.64,0000.73,19.0,25.1,02.1,01.5,0664.0,31.0
2021-09-05T14:52:00Z,00000200,00000000,0001.52,0002.37,0001.21,0000.86,0000.42,0000.24,0000.36,0000.35,0000.40,19.0,25.1,02.1,01.4,0664.0,31.0
2021-09-05T14:53:00Z,00000200,00000000,0003.39,0002.15,0001.03,0000.80,0000.29,-000.01,0000.58,0000.33,0000.55,19.0,25.1,02.1,01.4,0664.0,31.0
2021-09-05T14:54:00Z,00000200,00000000,0003.62,0002.56,0001.71,0001.04,0000.38,0000.40,0000.66,0000.67,0000.42,19.0,25.1,02.1,01.5,0664.0,31.0
2021-09-05T14:55:00Z,00000200,01000000,0002.49,0002.67,0001.13,0000.98,0000.54,0000.12,0000.59,0000.50,0000.29,19.1,25.1,02.1,01.4,0664.0,31.0
2021-09-05T14:56:00Z,00000200,00000000,0002.10,0002.68,0001.16,0000.51,0000.46,-000.11,0000.57,0000.62,0000.12,19.1,25.1,02.1,01.4,0664.1,31.1
2021-09-05T14:57:00Z,00000200,40000000,,,,,,,0000.49,0000.11,0000.48,19.1,25.2,02.2,01.5,0664.1,31.1
2021-09-05T14:58:00Z,00000200,60000000,,,,,,,-000.38,0000.28,0000.32,18.8,25.3,01.9,01.3,0663.1,31.0
2021-09-05T14:59:00Z,00000200,20000000,,,,,,,0000.06,-000.18,-000.27,18.8,25.4,01.9,01.3,0663.1,31.1
